Weather in Belovo

Russia / Kemerovo Oblast     54°25′19″N   86°18′13″E
temp.,
°C
wind,
m/s
gust,
m/s
humid.,
%
clouds,
%
prec.,
mm/h
press.,
hPa
HPBL,
m
8 may, sat
sat801:00+10wsw4115811 0.0 1016231
04:00+8w38670 0.0 1017158
07:00+8w37670 0.0 1018216
10:00+13wnw68370 0.0 10181558
13:00+17w69325 0.0 10172050
16:00+17w81238100 0.0 10162623
19:00+16w6124870 0.0 10151642
22:00+13wnw48595 0.1 1016174
9 may, sun
sun901:00+12wsw3772100 0.3 1016175
04:00+11nw4775100 0.1 1016378
07:00+8nnw47682 0.1 1018402
10:00+9nnw56535 0.0 10191015
13:00+11n56415 0.0 10191548
16:00+13n56365 0.0 10191999
19:00+12ne663838 0.0 10191900
22:00+8ne410530 0.0 1021342
10 may, mon
mon1001:00+6ne411620 0.0 1021308
04:00+4nne410710 0.0 1021232
07:00+4ne49710 0.0 1021310
10:00+10ene564811 0.0 1020943
13:00+14ene56355 0.0 10181574
16:00+16ne67314 0.0 10162011
19:00+15ene77365 0.0 10151718
22:00+10ne613535 0.0 1015437
11 may, tue
tue1101:00+7ne5126399 0.0 1015389
04:00+5nne41070100 0.0 1014238
07:00+6nne487061 0.0 1013296
10:00+12ne344498 0.0 1012849
13:00+15ne3432100 0.0 10111529
16:00+17ne3427100 0.0 10102179
19:00+17ne5736100 0.0 1011571
22:00+13nne51151100 0.0 1012340
12 may, wed
wed1201:00+11ene3658100 0.0 1012222
04:00+9ssw3580100 0.1 1012146
07:00+10nnw1277100 0.2 1013139
10:00+13ne5641100 0.0 10131141
13:00+15ne6736100 0.0 10131881
16:00+16ne4632100 0.0 10132333
19:00+14nne774795 0.0 10151364
22:00+11nne485394 0.0 1016293